Wilmington, DE

8:25 AM EST on February 22, 2018 (GMT -0500)
New Castle County

Weather History for KILG - November, 2013

Change the Weather History Date:

Sunday, November 3, 2013

  Actual Average Record
Temperature  
Mean Temperature 46 °F 50 °F  
Max Temperature 56 °F 60 °F 78 °F (2003)
Min Temperature 35 °F 41 °F 24 °F (1911)
Degree Days  
Heating Degree Days 19 15  
Month to date heating degree days 29 43  
Since 1 July heating degree days 325 387  
Cooling Degree Days 0 0  
Month to date cooling degree days 0 0  
Year to date cooling degree days 1241 1145  
Moisture  
Dew Point 30 °F    
Average Humidity 55    
Maximum Humidity 82    
Minimum Humidity 28    
Precipitation  
Precipitation 0.00 in 0.10 in 2.30 in (1927)
Month to date precipitation 0.10 0.31  
Year to date precipitation 40.32 36.81  
Snow  
Snow 0.00 in 0.00 in T in (1962)
Month to date snowfall 0.0 0.0  
Since 1 July snowfall 0.0 0.0  
Since 1 September snowfall 0.0 0.0  
Snow Depth 0.00 in    
Sea Level Pressure  
Sea Level Pressure 30.15 in    
Wind  
Wind Speed 12 mph (NNW)    
Max Wind Speed 23 mph    
Max Gust Speed 28 mph    
Visibility 10 miles    
Events      
T = Trace of Precipitation, MM = Missing Value Source: NWS Daily Summary

Daily Weather History Graph

Daily Weather History Graph

Search for Another Location

Airport or City:

Trip Planner

Search our weather history database for the weather conditions in past years. The results will help you decide how hot, cold, wet, or windy it might be!

Date:

Astronomy

Nov. 03, 2013 Rise Set
Actual Time 6:33 AM EST 4:58 PM EST
Civil Twilight 6:05 AM EST 5:26 PM EST
Nautical Twilight 5:33 AM EST 5:58 PM EST
Astronomical Twilight 5:01 AM EST 6:29 PM EST
Moon 6:34 AM EST (11/3) 5:11 PM EST (11/3)
Length of Visible Light 11h 20m
Length of Day
10h 24m
New Moon, 0% of the Moon is Illuminated
Nov 3
New Moon
Nov 10
First Quarter
Nov 17
Full
Nov 25
Last Quarter
Dec 2
New

Hourly Weather History & Observations

Time (EST) Temp. Windchill Dew Point Humidity Pressure Visibility Wind Dir Wind Speed Gust Speed Precip Events Conditions
12:51 AM 50.0 °F - 39.0 °F 66% 29.86 in 10.0 mi WNW 10.4 mph - N/A   Clear
1:51 AM 48.9 °F - 39.0 °F 69% 29.88 in 10.0 mi West 6.9 mph - N/A   Clear
1:51 AM 45.0 °F 41.2 °F 37.9 °F 76% 29.89 in 10.0 mi WNW 6.9 mph - N/A   Clear
2:51 AM 46.0 °F 43.9 °F 37.9 °F 73% 29.91 in 10.0 mi West 4.6 mph - N/A   Clear
3:51 AM 42.1 °F 37.1 °F 37.9 °F 85% 29.92 in 10.0 mi NW 8.1 mph - N/A   Partly Cloudy
4:51 AM 48.0 °F - 41.0 °F 77% 29.95 in 10.0 mi NW 10.4 mph - N/A   Mostly Cloudy
5:51 AM 48.9 °F - 39.0 °F 69% 29.99 in 10.0 mi NNW 15.0 mph 20.7 mph N/A   Overcast
6:51 AM 48.0 °F - 35.1 °F 61% 30.03 in 10.0 mi NNW 18.4 mph 26.5 mph N/A   Overcast
7:51 AM 48.0 °F - 34.0 °F 58% 30.08 in 10.0 mi North 10.4 mph - N/A   Overcast
8:51 AM 48.0 °F - 34.0 °F 58% 30.13 in 10.0 mi NNW 9.2 mph - N/A   Overcast
8:54 AM 48.2 °F - 33.8 °F 58% 30.13 in 10.0 mi NNW 13.8 mph - N/A   Mostly Cloudy
9:51 AM 51.1 °F - 33.1 °F 50% 30.15 in 10.0 mi North 15.0 mph 25.3 mph N/A   Mostly Cloudy
10:51 AM 52.0 °F - 32.0 °F 47% 30.18 in 10.0 mi NNW 16.1 mph - N/A   Clear
11:51 AM 54.0 °F - 30.0 °F 40% 30.19 in 10.0 mi NNW 13.8 mph 21.9 mph N/A   Clear
12:51 PM 55.0 °F - 25.0 °F 31% 30.18 in 10.0 mi North 16.1 mph 23.0 mph N/A   Clear
1:51 PM 55.0 °F - 25.0 °F 31% 30.19 in 10.0 mi NNW 15.0 mph 24.2 mph N/A   Clear
2:51 PM 55.9 °F - 24.1 °F 29% 30.21 in 10.0 mi NNW 12.7 mph - N/A   Clear
3:51 PM 54.0 °F - 21.9 °F 29% 30.23 in 10.0 mi NNW 13.8 mph - N/A   Partly Cloudy
4:51 PM 51.1 °F - 21.9 °F 32% 30.27 in 10.0 mi NNW 13.8 mph - N/A   Clear
5:51 PM 48.0 °F - 17.1 °F 29% 30.31 in 10.0 mi NNW 11.5 mph - N/A   Clear
6:51 PM 46.0 °F 40.6 °F 19.9 °F 35% 30.33 in 10.0 mi North 11.5 mph - N/A   Clear
7:51 PM 43.0 °F 34.8 °F 23.0 °F 45% 30.36 in 10.0 mi North 18.4 mph - N/A   Clear
8:51 PM 39.9 °F 33.9 °F 23.0 °F 51% 30.41 in 10.0 mi North 9.2 mph - N/A   Clear
9:51 PM 37.9 °F 29.6 °F 21.0 °F 51% 30.45 in 10.0 mi North 13.8 mph - N/A   Clear
10:51 PM 36.0 °F 29.6 °F 21.0 °F 55% 30.47 in 10.0 mi North 8.1 mph - N/A   Clear